loading
DOY 175 | 2024-06-23T16:44:49Z

THOR ABLESTAR DEB, 410

Orbit data source: Space-Track

THOR ABLESTAR DEB, 410 is space debris in LEO originally from a launch on Thu, 29 Jun 1961 UTC launched from the Air Force Eastern Test Range (AFETR). Debris objects in space refer to the collection of defunct objects orbiting the Earth. Examples of debris include non-operational satellites, rocket bodies, and fragments generated from explosions, collisions, or faulty payload assembly.

Loading next visibility...
Loading greatness...
THOR ABLESTAR DEB details
NORAD ID410
COSPAR ID
1961-015EK
Orbit
LEO
Last TLE update21 hours ago
Origin
Flag of USUSAF SSD (US)
ManufacturerUnknown
BusUnknown
MotorUnknown
MassWet unknown, Dry mass unknown
Launch date (UTC)
1961-06-29 (63 years ago)
Launch vehicleUnknown
Launch site
Air Force Eastern Test Range (AFETR)
Object type
Payload
Rocket body
Debris
Radar Cross SectionMedium (>0.1 m² and <1 m²)
Predictive object data (real-time)
Latitude40.01755°
Longitude-77.47623°
Altitude974.637 km
Speed7.372 km/s
Apparent Right ascension11h 53m 26s
Apparent Declination5° 53' 41"
Sunlit
Object is in daylight
Predictive observer data (real-time)
Local Sidereal Time03:53:43
Azimuth65.262° ENE
Elevation-18.345°
Doppler factor1
Orbital elements
Apogee982.417 km
Perigee967.944 km
Semi-major axis7,353.318 km
Eccentricity0.0009841
Inclination66.6942°
RAAN332.6921°
Arg. of periapsis152.1657°
True anomaly318.78284°
Mean anomaly318.8571°
Mean motion3.44206 °/min
BSTAR0.00011539
Period104.59 mins
Definitive object data (Epoch: 2024-06-22T19:42:00.689Z)
Latitude59.17494°
Longitude-100.19419°
Altitude980.497 km
Speed7.37 km/s
True Right ascension07h 07m 08s
True Declination59° 01' 41"
Sunlit
Object was in daylight at TLE epoch
TLE from 21 hours ago
0 THOR ABLESTAR DEB
1 00410U 61015EK  24174.82084131  .00000038  00000-0  11539-3 0  9996
2 00410  66.6942 332.6921 0009841 152.1657 318.8571 13.76377365160373
Epoch: 2024-06-22T19:42Z
No data available

THOR ABLESTAR DEB Visibility forecast

Observer location: 39.9160978°, -105.1181434, 0m alt.

THOR ABLESTAR DEB is not visible in the next 10 days
Span
Click to sort rows by Start time (UTC) header in descending order
Start Az.
Max El. time (UTC)
Max El. Az.
Max El.
End time (UTC)
End Az.